Grayling, MI

7:51 PM EDT on July 25, 2017 (GMT -0400)
Grayling

Weather History for KGOV - June, 2014

Change the Weather History Date:

Saturday, June 7, 2014

  Actual Average (KHTL) Record (KHTL)
Temperature  
Mean Temperature 63 °F -  
Max Temperature 82 °F 75 °F 94 °F (1925)
Min Temperature 44 °F 51 °F 28 °F (1924)
Degree Days  
Heating Degree Days 2    
Growing Degree Days 13 (Base 50)    
Moisture  
Dew Point 48 °F    
Average Humidity 59    
Maximum Humidity 100    
Minimum Humidity 25    
Precipitation  
Precipitation 0.00 in - - ()
Sea Level Pressure  
Sea Level Pressure 29.99 in    
Wind  
Wind Speed 2 mph (SSW)    
Max Wind Speed 10 mph    
Max Gust Speed 16 mph    
Visibility 10 miles    
Events      
Averages and records for this station are not official NWS values.
T = Trace of Precipitation, MM = Missing Value Source: NWS Daily Summary

Daily Weather History Graph

Daily Weather History Graph

Search for Another Location

Airport or City:

Trip Planner

Search our weather history database for the weather conditions in past years. The results will help you decide how hot, cold, wet, or windy it might be!

Date:

Astronomy

Jun. 07, 2014 Rise Set
Actual Time 5:54 AM EDT 9:21 PM EDT
Civil Twilight 5:17 AM EDT 9:58 PM EDT
Nautical Twilight 4:29 AM EDT 10:46 PM EDT
Astronomical Twilight 3:28 AM EDT 11:48 PM EDT
Moon 3:25 PM EDT (6/7) 2:29 AM EDT (6/7)
Length of Visible Light 16h 40m
Length of Day
15h 27m
Waxing Gibbous, 67% of the Moon is Illuminated
Jun 7
Waxing Gibbous
Jun 13
Full
Jun 19
Last Quarter
Jun 27
New
Jul 5
First Quarter

Hourly Weather History & Observations

Time (EDT) Temp. Dew Point Humidity Pressure Visibility Wind Dir Wind Speed Gust Speed Precip Events Conditions
12:15 AM 52.7 °F 49.5 °F 89% 30.03 in 10.0 mi Calm Calm - N/A   Clear
12:36 AM 52.7 °F 49.1 °F 88% 30.02 in 10.0 mi Calm Calm - N/A   Clear
12:55 AM 52.7 °F 50.2 °F 91% 30.02 in 10.0 mi Calm Calm - N/A   Clear
1:16 AM 52.7 °F 50.0 °F 91% 30.02 in 10.0 mi Calm Calm - N/A   Clear
1:36 AM 48.9 °F 47.3 °F 94% 30.03 in 10.0 mi Calm Calm - N/A   Clear
1:55 AM 50.0 °F 48.0 °F 93% 30.03 in 10.0 mi NW 3.5 mph - N/A   Clear
2:16 AM 48.0 °F 47.7 °F 99% 30.03 in 10.0 mi Calm Calm - N/A   Clear
2:36 AM 47.7 °F 46.6 °F 96% 30.04 in 10.0 mi Calm Calm - N/A   Clear
2:56 AM 47.7 °F 47.3 °F 99% 30.05 in 10.0 mi Calm Calm - N/A   Clear
3:16 AM 47.7 °F 47.7 °F 100% 30.04 in 10.0 mi Calm Calm - N/A   Clear
3:35 AM 47.7 °F 47.7 °F 100% 30.04 in 10.0 mi Calm Calm - N/A   Clear
3:56 AM 47.7 °F 47.5 °F 99% 30.03 in 10.0 mi Calm Calm - N/A   Clear
4:16 AM 46.2 °F 46.2 °F 100% 30.02 in 7.0 mi Calm Calm - N/A   Clear
4:35 AM 46.6 °F 46.2 °F 99% 30.02 in 5.0 mi Calm Calm - N/A   Clear
4:56 AM 46.0 °F 45.9 °F 99% 30.02 in 7.0 mi Calm Calm - N/A   Clear
5:15 AM 44.8 °F 44.8 °F 100% 30.01 in 5.0 mi Calm Calm - N/A   Clear
5:36 AM 44.1 °F 44.1 °F 100% 30.02 in 1.2 mi Calm Calm - N/A   Mist
5:56 AM 47.1 °F 47.1 °F 100% 30.03 in 4.0 mi Calm Calm - N/A   Clear
6:15 AM 45.1 °F 45.0 °F 99% 30.04 in 10.0 mi Calm Calm - N/A   Clear
6:36 AM 46.6 °F 46.2 °F 99% 30.06 in 7.0 mi Calm Calm - N/A   Clear
6:56 AM 47.8 °F 46.9 °F 97% 30.06 in 10.0 mi Calm Calm - N/A   Clear
7:15 AM 50.2 °F 48.6 °F 94% 30.06 in 10.0 mi Calm Calm - N/A   Clear
7:36 AM 52.7 °F 50.0 °F 91% 30.06 in 10.0 mi Calm Calm - N/A   Clear
8:15 AM 58.3 °F 52.2 °F 80% 30.07 in 10.0 mi Calm Calm - N/A   Scattered Clouds
9:15 AM 68.0 °F 51.8 °F 56% 30.05 in 10.0 mi Calm Calm - N/A   Clear
9:36 AM 72.3 °F 50.9 °F 47% 30.05 in 10.0 mi Calm Calm - N/A   Clear
9:56 AM 72.9 °F 46.9 °F 40% 30.04 in 10.0 mi Calm Calm - N/A   Clear
10:15 AM 74.7 °F 47.7 °F 38% 30.03 in 10.0 mi Calm Calm - N/A   Clear
10:36 AM 75.4 °F 47.7 °F 37% 30.02 in 10.0 mi ESE 4.6 mph - N/A   Clear
10:56 AM 75.4 °F 46.0 °F 35% 30.01 in 10.0 mi SSE 3.5 mph - N/A   Clear
11:15 AM 75.6 °F 45.7 °F 35% 30.01 in 10.0 mi SE 3.5 mph - N/A   Clear
11:36 AM 77.5 °F 47.1 °F 34% 30.01 in 10.0 mi East 6.9 mph - N/A   Clear
11:55 AM 77.9 °F 46.8 °F 33% 30.01 in 10.0 mi ESE 6.9 mph - N/A   Clear
12:16 PM 77.9 °F 46.6 °F 33% 30.01 in 10.0 mi North 3.5 mph - N/A   Clear
12:36 PM 78.6 °F 45.7 °F 31% 30.01 in 10.0 mi East 5.8 mph - N/A   Clear
12:55 PM 79.3 °F 45.9 °F 31% 30.00 in 10.0 mi WSW 5.8 mph - N/A   Clear
1:16 PM 79.0 °F 46.2 °F 31% 30.00 in 10.0 mi SSW 3.5 mph - N/A   Clear
1:36 PM 79.7 °F 46.6 °F 31% 29.99 in 10.0 mi SSW 8.1 mph - N/A   Scattered Clouds
1:55 PM 78.8 °F 46.9 °F 32% 29.99 in 10.0 mi South 9.2 mph - N/A   Mostly Cloudy
2:16 PM 79.2 °F 45.9 °F 31% 29.98 in 10.0 mi South 4.6 mph - N/A   Overcast
2:36 PM 79.7 °F 45.7 °F 30% 29.97 in 10.0 mi SW 4.6 mph - N/A   Mostly Cloudy
2:55 PM 79.3 °F 45.0 °F 30% 29.96 in 10.0 mi SSW 6.9 mph - N/A   Scattered Clouds
3:16 PM 80.6 °F 43.3 °F 27% 29.96 in 10.0 mi SSW 10.4 mph 16.1 mph N/A   Scattered Clouds
3:35 PM 81.0 °F 43.5 °F 27% 29.95 in 10.0 mi South 9.2 mph 16.1 mph N/A   Scattered Clouds
3:56 PM 82.0 °F 43.2 °F 25% 29.94 in 10.0 mi SW 8.1 mph - N/A   Scattered Clouds
4:16 PM 80.8 °F 42.8 °F 26% 29.94 in 10.0 mi WSW 4.6 mph - N/A   Scattered Clouds
4:35 PM 80.6 °F 43.2 °F 27% 29.93 in 10.0 mi SW 6.9 mph - N/A   Scattered Clouds
4:56 PM 79.2 °F 43.0 °F 28% 29.93 in 10.0 mi SW 6.9 mph - N/A   Scattered Clouds
5:14 PM 79.7 °F 44.1 °F 28% 29.93 in 10.0 mi South 4.6 mph - N/A   Scattered Clouds
5:35 PM 80.6 °F 45.0 °F 28% 29.93 in 10.0 mi SSW 9.2 mph - N/A   Clear
5:56 PM 77.9 °F 45.1 °F 31% 29.93 in 10.0 mi South 8.1 mph - N/A   Mostly Cloudy
6:16 PM 77.9 °F 46.9 °F 33% 29.94 in 10.0 mi South 4.6 mph - N/A   Scattered Clouds
6:35 PM 77.9 °F 47.3 °F 34% 29.93 in 10.0 mi South 5.8 mph - N/A   Mostly Cloudy
6:56 PM 77.9 °F 47.5 °F 34% 29.93 in 10.0 mi South 4.6 mph - N/A   Overcast
7:16 PM 77.9 °F 46.9 °F 33% 29.93 in 10.0 mi South 5.8 mph - N/A   Overcast
7:36 PM 77.9 °F 47.1 °F 34% 29.92 in 10.0 mi South 4.6 mph - N/A   Mostly Cloudy
7:56 PM 75.4 °F 52.3 °F 44% 29.93 in 10.0 mi NW 3.5 mph - N/A   Mostly Cloudy
8:15 PM 73.6 °F 51.8 °F 46% 29.93 in 10.0 mi Calm Calm - N/A   Scattered Clouds
8:36 PM 72.9 °F 52.3 °F 48% 29.93 in 10.0 mi NNW 4.6 mph - N/A   Scattered Clouds
8:56 PM 71.6 °F 55.2 °F 56% 29.93 in 10.0 mi NNW 6.9 mph - N/A   Mostly Cloudy
9:15 PM 72.9 °F 54.1 °F 52% 29.93 in 10.0 mi NNW 8.1 mph - N/A   Overcast
9:36 PM 70.3 °F 52.0 °F 52% 29.93 in 10.0 mi NNW 6.9 mph - N/A   Mostly Cloudy
9:56 PM 68.0 °F 50.9 °F 54% 29.93 in 10.0 mi NW 4.6 mph - N/A   Mostly Cloudy
10:15 PM 68.0 °F 50.5 °F 54% 29.93 in 10.0 mi Calm Calm - N/A   Mostly Cloudy
10:36 PM 67.5 °F 53.6 °F 61% 29.94 in 10.0 mi Calm Calm - N/A   Mostly Cloudy
10:55 PM 66.4 °F 53.4 °F 63% 29.94 in 10.0 mi Calm Calm - N/A   Mostly Cloudy
11:16 PM 65.5 °F 52.7 °F 63% 29.94 in 10.0 mi Calm Calm - N/A   Overcast
11:36 PM 63.5 °F 52.5 °F 67% 29.93 in 10.0 mi Calm Calm - N/A   Overcast
11:55 PM 64.6 °F 51.8 °F 63% 29.93 in 10.0 mi Calm Calm - N/A   Overcast